Cheyenne — WDE9553 — position and weather

sailwx.info

Track history (hours):
 
Tides and Currents Weather Stations Pressure Air Temp Water Temp Dewpoint Dewpoint Depression Visibility Wind Speed Wind Dir Waves Ship Positions

Cheyenne

Owner: DMC MARINE, LLC, HILLSIDE, NJ. More information available from US FCC via Universal Licensing System and Coast Guard Vessel Documentation Center.

Last reported at 2014-Oct-30 23:33 UTC. Time now 2014-Oct-30 23:52 UTC.
Position N 40°41' W 074°04'.

Length 29 m; draft 4 m.

Type: Towing. MMSI: 367418570.

Date/timePositionNaut miles runAvg speedWind from/ knotsBaromVisibWave heightAir tempDewpointWater temp
2014-Oct-30 23:33N 40°41' W 074°04'6 6.2
2014-Oct-30 22:34N 40°45' W 073°58'0 0.0
2014-Oct-30 16:33N 40°45' W 073°58'6 6.1
2014-Oct-30 15:33N 40°41' W 074°04'0 0.2
2014-Oct-30 14:33N 40°41' W 074°05'0 0.0
2014-Oct-30 13:15N 40°41' W 074°05'0 0.0
2014-Oct-30 12:15N 40°41' W 074°05'0 0.0
2014-Oct-30 11:33N 40°41' W 074°05'0 0.0
2014-Oct-30 10:27N 40°41' W 074°05'0 0.0
2014-Oct-30 07:25N 40°41' W 074°05'0 0.0
2014-Oct-30 06:15N 40°41' W 074°05'1 1.7
2014-Oct-30 05:33N 40°41' W 074°03'3 3.4
2014-Oct-30 04:33N 40°42' W 073°60'1 1.4
2014-Oct-30 03:33N 40°43' W 073°58'1 1.4
2014-Oct-30 02:33N 40°44' W 073°57'4 4.2
2014-Oct-30 01:33N 40°41' W 074°01'3 3.0
2014-Oct-30 00:32N 40°41' W 074°05'0 0.0
2014-Oct-29 23:33N 40°41' W 074°05'0 0.0
2014-Oct-29 22:33N 40°41' W 074°05'0 0.0
2014-Oct-29 21:33N 40°41' W 074°05'0 0.0
2014-Oct-29 20:32N 40°41' W 074°05'0 0.0
2014-Oct-29 19:33N 40°41' W 074°05'0 0.0
2014-Oct-29 18:20N 40°41' W 074°05'0 0.0
2014-Oct-29 17:32N 40°41' W 074°05'0 0.0
2014-Oct-29 16:21N 40°41' W 074°05'0 0.0
2014-Oct-29 15:33N 40°41' W 074°05'0 0.0
2014-Oct-29 14:31N 40°41' W 074°05'0 0.0
2014-Oct-29 13:24N 40°41' W 074°05'0 0.0
2014-Oct-29 12:28N 40°41' W 074°05'0 0.0
2014-Oct-29 11:32N 40°41' W 074°05'0 0.0
2014-Oct-29 10:33N 40°41' W 074°05'0 0.0
2014-Oct-29 09:33N 40°41' W 074°05'0 0.0
2014-Oct-29 08:30N 40°41' W 074°05'0 0.0
2014-Oct-29 07:33N 40°41' W 074°05'0 0.0
2014-Oct-29 06:33N 40°41' W 074°05'0 0.0
2014-Oct-29 04:33N 40°41' W 074°05'4 3.7
2014-Oct-29 03:33N 40°40' W 073°60'3 3.1
2014-Oct-29 02:33N 40°41' W 074°04'1 0.7
2014-Oct-29 01:33N 40°41' W 074°05'0 0.0
2014-Oct-29 00:33N 40°41' W 074°05'0 0.0
2014-Oct-28 23:33N 40°41' W 074°05'0 0.0
2014-Oct-28 22:33N 40°41' W 074°05'2 2.0
2014-Oct-28 21:33N 40°41' W 074°02'14 4.4
2014-Oct-28 18:17N 40°51' W 073°49'10 2.2
2014-Oct-28 13:33N 40°44' W 073°58'6 5.7
2014-Oct-28 12:33N 40°41' W 074°05'0 0.0
2014-Oct-28 11:33N 40°41' W 074°05'0 0.0
2014-Oct-28 10:33N 40°41' W 074°05'0 0.0
2014-Oct-28 09:33N 40°41' W 074°05'0 0.0
2014-Oct-28 08:33N 40°41' W 074°05'0 0.0
2014-Oct-28 07:33N 40°41' W 074°05'0 0.0
2014-Oct-28 06:20N 40°41' W 074°05'0 0.0
2014-Oct-28 05:33N 40°41' W 074°05'0 0.0
2014-Oct-28 04:33N 40°41' W 074°05'0 0.1
2014-Oct-28 03:34N 40°41' W 074°05'4 3.6
2014-Oct-28 02:33N 40°40' W 073°60'3 3.2
2014-Oct-28 01:33N 40°41' W 074°04'1 0.6
2014-Oct-28 00:29N 40°41' W 074°05'0 0.0
2014-Oct-27 23:33N 40°41' W 074°05'0 0.0
2014-Oct-27 22:33N 40°41' W 074°05'0 0.0
2014-Oct-27 21:33N 40°41' W 074°05'0 0.0
2014-Oct-27 20:33N 40°41' W 074°05'0 0.0
2014-Oct-27 19:33N 40°41' W 074°05'0 0.0
2014-Oct-27 18:33N 40°41' W 074°05'0 0.0
2014-Oct-27 17:33N 40°41' W 074°05'0 0.0
2014-Oct-27 16:33N 40°41' W 074°05'0 0.0
2014-Oct-27 15:33N 40°41' W 074°05'0 0.0
2014-Oct-27 14:33N 40°41' W 074°05'0 0.0
2014-Oct-27 13:33N 40°41' W 074°05'0 0.0
2014-Oct-27 12:33N 40°41' W 074°05'0 0.0
2014-Oct-27 11:33N 40°41' W 074°05'0 0.0
2014-Oct-27 10:33N 40°41' W 074°05'0 0.0
2014-Oct-27 09:31N 40°41' W 074°05'0 0.0
2014-Oct-27 08:33N 40°41' W 074°05'0 0.0
2014-Oct-27 07:33N 40°41' W 074°05'0 0.0
2014-Oct-27 06:29N 40°41' W 074°05'0 0.0
2014-Oct-27 05:33N 40°41' W 074°05'0 0.0
2014-Oct-27 04:33N 40°41' W 074°05'0 0.0
2014-Oct-27 03:33N 40°41' W 074°05'0 0.0
2014-Oct-27 02:33N 40°41' W 074°05'0 0.0
2014-Oct-27 01:33N 40°41' W 074°05'0 0.0
2014-Oct-27 00:33N 40°41' W 074°05'0 0.0
2014-Oct-26 22:26N 40°41' W 074°05'0 0.0
2014-Oct-26 21:31N 40°41' W 074°05'1 1.4
2014-Oct-26 20:33N 40°41' W 074°03'0 0.0
2014-Oct-26 19:33N 40°41' W 074°03'0 0.0
2014-Oct-26 18:33N 40°41' W 074°03'0 0.0
2014-Oct-26 17:33N 40°41' W 074°03'0 0.0
2014-Oct-26 16:33N 40°41' W 074°03'0 0.0
2014-Oct-26 15:33N 40°41' W 074°03'0 0.0
2014-Oct-26 14:33N 40°41' W 074°03'1 1.4
2014-Oct-26 13:33N 40°41' W 074°05'0 0.0
2014-Oct-26 12:33N 40°41' W 074°05'0 0.0
2014-Oct-26 11:33N 40°41' W 074°05'0 0.0
2014-Oct-26 10:34N 40°41' W 074°05'0 0.0
2014-Oct-26 09:33N 40°41' W 074°05'0 0.0
2014-Oct-26 08:33N 40°41' W 074°05'0 0.0
2014-Oct-26 07:33N 40°41' W 074°05'0 0.0
2014-Oct-26 06:33N 40°41' W 074°05'0 0.0
2014-Oct-26 05:33N 40°41' W 074°05'0 0.0
2014-Oct-26 04:33N 40°41' W 074°05'0 0.0
2014-Oct-26 03:33N 40°41' W 074°05'0 0.0
2014-Oct-26 02:33N 40°41' W 074°05'0 0.0
2014-Oct-26 01:33N 40°41' W 074°05'0 0.0
2014-Oct-26 00:33N 40°41' W 074°05'0 0.0
2014-Oct-25 23:33N 40°41' W 074°05'0 0.0
2014-Oct-25 22:30N 40°41' W 074°05'0 0.0
2014-Oct-25 21:25N 40°41' W 074°05'3 1.8
2014-Oct-25 19:31N 40°40' W 074°09'3 1.2
2014-Oct-25 17:13N 40°38' W 074°12'4 4.6
2014-Oct-25 16:25N 40°41' W 074°08'0 0.1
2014-Oct-25 15:32N 40°41' W 074°08'0 0.0
2014-Oct-25 13:28N 40°41' W 074°08'0 0.0
2014-Oct-25 12:19N 40°41' W 074°08'0 0.0
2014-Oct-25 11:21N 40°41' W 074°08'0 0.1
2014-Oct-25 10:33N 40°41' W 074°08'0 0.1
2014-Oct-25 09:33N 40°41' W 074°08'0 0.0
2014-Oct-25 08:33N 40°41' W 074°08'0 0.0
2014-Oct-25 07:33N 40°41' W 074°08'0 0.0
2014-Oct-25 06:33N 40°41' W 074°08'0 0.0
2014-Oct-25 05:33N 40°41' W 074°08'0 0.0
2014-Oct-25 04:33N 40°41' W 074°08'0 0.0
2014-Oct-25 03:32N 40°41' W 074°08'0 0.0
2014-Oct-25 02:33N 40°41' W 074°08'2 2.4
2014-Oct-25 01:33N 40°39' W 074°08'4 4.2
2014-Oct-25 00:33N 40°41' W 074°04'4 3.7
2014-Oct-24 23:30N 40°40' W 074°09'2 2.6
2014-Oct-24 22:33N 40°42' W 074°09'1 1.1
2014-Oct-24 21:33N 40°41' W 074°08'0 0.1
2014-Oct-24 20:25N 40°41' W 074°08'2 2.6
2014-Oct-24 19:27N 40°39' W 074°07'3 3.3
2014-Oct-24 18:33N 40°41' W 074°04'2 2.1
2014-Oct-24 17:33N 40°39' W 074°05'3 3.2
2014-Oct-24 16:32N 40°41' W 074°08'2 2.3
2014-Oct-24 15:33N 40°39' W 074°09'3 3.5
2014-Oct-24 14:33N 40°39' W 074°04'2 1.8
2014-Oct-24 13:33N 40°41' W 074°05'4 3.5
2014-Oct-24 12:33N 40°40' W 074°00'1 1.3
2014-Oct-24 11:33N 40°40' W 074°02'2 0.2
2014-Oct-23 21:33N 40°41' W 074°05'3 3.3
2014-Oct-23 20:33N 40°42' W 074°00'4 3.6
2014-Oct-23 19:33N 40°44' W 073°57'2 2.1
2014-Oct-23 18:33N 40°43' W 073°59'4 4.4
2014-Oct-23 17:33N 40°41' W 074°04'1 0.6
2014-Oct-23 16:22N 40°41' W 074°05'0 0.1
2014-Oct-23 15:33N 40°41' W 074°05'0 0.0
2014-Oct-23 14:27N 40°41' W 074°05'0 0.0
2014-Oct-23 13:29N 40°41' W 074°05'0 0.0
2014-Oct-23 12:33N 40°41' W 074°05'0 0.0
2014-Oct-23 11:33N 40°41' W 074°05'0 0.0
2014-Oct-23 10:33N 40°41' W 074°05'0 0.0
2014-Oct-23 09:27N 40°41' W 074°05'0 0.0
2014-Oct-23 08:33N 40°41' W 074°05'0 0.0
2014-Oct-23 07:33N 40°41' W 074°05'0 0.0
2014-Oct-23 06:33N 40°41' W 074°05'1 1.3
2014-Oct-23 05:33N 40°41' W 074°03'6 6.0
2014-Oct-23 04:33N 40°44' W 073°57'1 0.5
2014-Oct-23 03:33N 40°44' W 073°57'5 4.7
2014-Oct-23 02:33N 40°42' W 074°02'1 1.5
2014-Oct-23 01:33N 40°41' W 074°04'5 4.8
2014-Oct-23 00:33N 40°43' W 073°58'1 1.3
2014-Oct-22 23:33N 40°44' W 073°57'6 6.2
2014-Oct-22 22:33N 40°41' W 074°04'0 0.2
2014-Oct-22 21:33N 40°41' W 074°05'4 3.9
2014-Oct-22 20:33N 40°42' W 073°60'3 2.8
2014-Oct-22 19:32N 40°44' W 073°57'3 2.6
2014-Oct-22 18:33N 40°43' W 073°59'4 4.3
2014-Oct-22 17:33N 40°41' W 074°05'0 0.1
2014-Oct-22 16:33N 40°41' W 074°05'0 0.0
2014-Oct-22 15:31N 40°41' W 074°05'0 0.0
2014-Oct-22 14:33N 40°41' W 074°05'0 0.0
2014-Oct-22 13:33N 40°41' W 074°05'0 0.0
2014-Oct-22 12:33N 40°41' W 074°05'0 0.0
2014-Oct-22 11:29N 40°41' W 074°05'0 0.0
2014-Oct-22 10:33N 40°41' W 074°05'0 0.0
2014-Oct-22 09:32N 40°41' W 074°05'0 0.0
2014-Oct-22 08:29N 40°41' W 074°05'1 0.6
2014-Oct-22 07:33N 40°41' W 074°04'6 6.0
2014-Oct-22 06:33N 40°45' W 073°58'2 0.2
2014-Oct-21 20:33N 40°43' W 073°58'5 4.8
2014-Oct-21 19:32N 40°41' W 074°05'0 0.0
2014-Oct-21 18:33N 40°41' W 074°05'0 0.0
2014-Oct-21 17:33N 40°41' W 074°05'0 0.0
2014-Oct-21 16:33N 40°41' W 074°05'0 0.0
2014-Oct-21 15:33N 40°41' W 074°05'0 0.0
2014-Oct-21 14:33N 40°41' W 074°05'0 0.0
2014-Oct-21 13:33N 40°41' W 074°05'0 0.0
2014-Oct-21 12:33N 40°41' W 074°05'4 3.6
2014-Oct-21 11:33N 40°40' W 074°00'1 0.7
2014-Oct-21 10:33N 40°40' W 074°01'3 3.1
2014-Oct-21 09:33N 40°41' W 074°05'0 0.0
2014-Oct-21 08:33N 40°41' W 074°05'0 0.0
2014-Oct-21 07:33N 40°41' W 074°05'0 0.0
2014-Oct-21 06:33N 40°41' W 074°05'0 0.0
2014-Oct-21 05:32N 40°41' W 074°05'0 0.0
2014-Oct-21 04:33N 40°41' W 074°05'0 0.0
2014-Oct-21 03:33N 40°41' W 074°05'0 0.0
2014-Oct-21 02:33N 40°41' W 074°05'0 0.0
2014-Oct-21 01:33N 40°41' W 074°05'0 0.0
2014-Oct-21 00:31N 40°41' W 074°05'  
Track history (hours):
 
Tides and Currents Weather Stations Pressure Air Temp Water Temp Dewpoint Dewpoint Depression Visibility Wind Speed Wind Dir Waves Ship Positions

Cheyenne

Owner: DMC MARINE, LLC, HILLSIDE, NJ. More information available from US FCC via Universal Licensing System and Coast Guard Vessel Documentation Center.

Last reported at 2014-Oct-30 23:33 UTC. Time now 2014-Oct-30 23:52 UTC.
Position N 40°41' W 074°04'.

Length 29 m; draft 4 m.

Type: Towing. MMSI: 367418570.

Date/timePositionNaut miles runAvg speedWind from/ knotsBaromVisibWave heightAir tempDewpointWater temp
2014-Oct-30 23:33N 40°41' W 074°04'6 6.2
2014-Oct-30 22:34N 40°45' W 073°58'0 0.0
2014-Oct-30 16:33N 40°45' W 073°58'6 6.1
2014-Oct-30 15:33N 40°41' W 074°04'0 0.2
2014-Oct-30 14:33N 40°41' W 074°05'0 0.0
2014-Oct-30 13:15N 40°41' W 074°05'0 0.0
2014-Oct-30 12:15N 40°41' W 074°05'0 0.0
2014-Oct-30 11:33N 40°41' W 074°05'0 0.0
2014-Oct-30 10:27N 40°41' W 074°05'0 0.0
2014-Oct-30 07:25N 40°41' W 074°05'0 0.0
2014-Oct-30 06:15N 40°41' W 074°05'1 1.7
2014-Oct-30 05:33N 40°41' W 074°03'3 3.4
2014-Oct-30 04:33N 40°42' W 073°60'1 1.4
2014-Oct-30 03:33N 40°43' W 073°58'1 1.4
2014-Oct-30 02:33N 40°44' W 073°57'4 4.2
2014-Oct-30 01:33N 40°41' W 074°01'3 3.0
2014-Oct-30 00:32N 40°41' W 074°05'0 0.0
2014-Oct-29 23:33N 40°41' W 074°05'0 0.0
2014-Oct-29 22:33N 40°41' W 074°05'0 0.0
2014-Oct-29 21:33N 40°41' W 074°05'0 0.0
2014-Oct-29 20:32N 40°41' W 074°05'0 0.0
2014-Oct-29 19:33N 40°41' W 074°05'0 0.0
2014-Oct-29 18:20N 40°41' W 074°05'0 0.0
2014-Oct-29 17:32N 40°41' W 074°05'0 0.0
2014-Oct-29 16:21N 40°41' W 074°05'0 0.0
2014-Oct-29 15:33N 40°41' W 074°05'0 0.0
2014-Oct-29 14:31N 40°41' W 074°05'0 0.0
2014-Oct-29 13:24N 40°41' W 074°05'0 0.0
2014-Oct-29 12:28N 40°41' W 074°05'0 0.0
2014-Oct-29 11:32N 40°41' W 074°05'0 0.0
2014-Oct-29 10:33N 40°41' W 074°05'0 0.0
2014-Oct-29 09:33N 40°41' W 074°05'0 0.0
2014-Oct-29 08:30N 40°41' W 074°05'0 0.0
2014-Oct-29 07:33N 40°41' W 074°05'0 0.0
2014-Oct-29 06:33N 40°41' W 074°05'0 0.0
2014-Oct-29 04:33N 40°41' W 074°05'4 3.7
2014-Oct-29 03:33N 40°40' W 073°60'3 3.1
2014-Oct-29 02:33N 40°41' W 074°04'1 0.7
2014-Oct-29 01:33N 40°41' W 074°05'0 0.0
2014-Oct-29 00:33N 40°41' W 074°05'0 0.0
2014-Oct-28 23:33N 40°41' W 074°05'0 0.0
2014-Oct-28 22:33N 40°41' W 074°05'2 2.0
2014-Oct-28 21:33N 40°41' W 074°02'14 4.4
2014-Oct-28 18:17N 40°51' W 073°49'10 2.2
2014-Oct-28 13:33N 40°44' W 073°58'6 5.7
2014-Oct-28 12:33N 40°41' W 074°05'0 0.0
2014-Oct-28 11:33N 40°41' W 074°05'0 0.0
2014-Oct-28 10:33N 40°41' W 074°05'0 0.0
2014-Oct-28 09:33N 40°41' W 074°05'0 0.0
2014-Oct-28 08:33N 40°41' W 074°05'0 0.0
2014-Oct-28 07:33N 40°41' W 074°05'0 0.0
2014-Oct-28 06:20N 40°41' W 074°05'0 0.0
2014-Oct-28 05:33N 40°41' W 074°05'0 0.0
2014-Oct-28 04:33N 40°41' W 074°05'0 0.1
2014-Oct-28 03:34N 40°41' W 074°05'4 3.6
2014-Oct-28 02:33N 40°40' W 073°60'3 3.2
2014-Oct-28 01:33N 40°41' W 074°04'1 0.6
2014-Oct-28 00:29N 40°41' W 074°05'0 0.0
2014-Oct-27 23:33N 40°41' W 074°05'0 0.0
2014-Oct-27 22:33N 40°41' W 074°05'0 0.0
2014-Oct-27 21:33N 40°41' W 074°05'0 0.0
2014-Oct-27 20:33N 40°41' W 074°05'0 0.0
2014-Oct-27 19:33N 40°41' W 074°05'0 0.0
2014-Oct-27 18:33N 40°41' W 074°05'0 0.0
2014-Oct-27 17:33N 40°41' W 074°05'0 0.0
2014-Oct-27 16:33N 40°41' W 074°05'0 0.0
2014-Oct-27 15:33N 40°41' W 074°05'0 0.0
2014-Oct-27 14:33N 40°41' W 074°05'0 0.0
2014-Oct-27 13:33N 40°41' W 074°05'0 0.0
2014-Oct-27 12:33N 40°41' W 074°05'0 0.0
2014-Oct-27 11:33N 40°41' W 074°05'0 0.0
2014-Oct-27 10:33N 40°41' W 074°05'0 0.0
2014-Oct-27 09:31N 40°41' W 074°05'0 0.0
2014-Oct-27 08:33N 40°41' W 074°05'0 0.0
2014-Oct-27 07:33N 40°41' W 074°05'0 0.0
2014-Oct-27 06:29N 40°41' W 074°05'0 0.0
2014-Oct-27 05:33N 40°41' W 074°05'0 0.0
2014-Oct-27 04:33N 40°41' W 074°05'0 0.0
2014-Oct-27 03:33N 40°41' W 074°05'0 0.0
2014-Oct-27 02:33N 40°41' W 074°05'0 0.0
2014-Oct-27 01:33N 40°41' W 074°05'0 0.0
2014-Oct-27 00:33N 40°41' W 074°05'0 0.0
2014-Oct-26 22:26N 40°41' W 074°05'0 0.0
2014-Oct-26 21:31N 40°41' W 074°05'1 1.4
2014-Oct-26 20:33N 40°41' W 074°03'0 0.0
2014-Oct-26 19:33N 40°41' W 074°03'0 0.0
2014-Oct-26 18:33N 40°41' W 074°03'0 0.0
2014-Oct-26 17:33N 40°41' W 074°03'0 0.0
2014-Oct-26 16:33N 40°41' W 074°03'0 0.0
2014-Oct-26 15:33N 40°41' W 074°03'0 0.0
2014-Oct-26 14:33N 40°41' W 074°03'1 1.4
2014-Oct-26 13:33N 40°41' W 074°05'0 0.0
2014-Oct-26 12:33N 40°41' W 074°05'0 0.0
2014-Oct-26 11:33N 40°41' W 074°05'0 0.0
2014-Oct-26 10:34N 40°41' W 074°05'0 0.0
2014-Oct-26 09:33N 40°41' W 074°05'0 0.0
2014-Oct-26 08:33N 40°41' W 074°05'0 0.0
2014-Oct-26 07:33N 40°41' W 074°05'0 0.0
2014-Oct-26 06:33N 40°41' W 074°05'0 0.0
2014-Oct-26 05:33N 40°41' W 074°05'0 0.0
2014-Oct-26 04:33N 40°41' W 074°05'0 0.0
2014-Oct-26 03:33N 40°41' W 074°05'0 0.0
2014-Oct-26 02:33N 40°41' W 074°05'0 0.0
2014-Oct-26 01:33N 40°41' W 074°05'0 0.0
2014-Oct-26 00:33N 40°41' W 074°05'0 0.0
2014-Oct-25 23:33N 40°41' W 074°05'0 0.0
2014-Oct-25 22:30N 40°41' W 074°05'0 0.0
2014-Oct-25 21:25N 40°41' W 074°05'3 1.8
2014-Oct-25 19:31N 40°40' W 074°09'3 1.2
2014-Oct-25 17:13N 40°38' W 074°12'4 4.6
2014-Oct-25 16:25N 40°41' W 074°08'0 0.1
2014-Oct-25 15:32N 40°41' W 074°08'0 0.0
2014-Oct-25 13:28N 40°41' W 074°08'0 0.0
2014-Oct-25 12:19N 40°41' W 074°08'0 0.0
2014-Oct-25 11:21N 40°41' W 074°08'0 0.1
2014-Oct-25 10:33N 40°41' W 074°08'0 0.1
2014-Oct-25 09:33N 40°41' W 074°08'0 0.0
2014-Oct-25 08:33N 40°41' W 074°08'0 0.0
2014-Oct-25 07:33N 40°41' W 074°08'0 0.0
2014-Oct-25 06:33N 40°41' W 074°08'0 0.0
2014-Oct-25 05:33N 40°41' W 074°08'0 0.0
2014-Oct-25 04:33N 40°41' W 074°08'0 0.0
2014-Oct-25 03:32N 40°41' W 074°08'0 0.0
2014-Oct-25 02:33N 40°41' W 074°08'2 2.4
2014-Oct-25 01:33N 40°39' W 074°08'4 4.2
2014-Oct-25 00:33N 40°41' W 074°04'4 3.7
2014-Oct-24 23:30N 40°40' W 074°09'2 2.6
2014-Oct-24 22:33N 40°42' W 074°09'1 1.1
2014-Oct-24 21:33N 40°41' W 074°08'0 0.1
2014-Oct-24 20:25N 40°41' W 074°08'2 2.6
2014-Oct-24 19:27N 40°39' W 074°07'3 3.3
2014-Oct-24 18:33N 40°41' W 074°04'2 2.1
2014-Oct-24 17:33N 40°39' W 074°05'3 3.2
2014-Oct-24 16:32N 40°41' W 074°08'2 2.3
2014-Oct-24 15:33N 40°39' W 074°09'3 3.5
2014-Oct-24 14:33N 40°39' W 074°04'2 1.8
2014-Oct-24 13:33N 40°41' W 074°05'4 3.5
2014-Oct-24 12:33N 40°40' W 074°00'1 1.3
2014-Oct-24 11:33N 40°40' W 074°02'2 0.2
2014-Oct-23 21:33N 40°41' W 074°05'3 3.3
2014-Oct-23 20:33N 40°42' W 074°00'4 3.6
2014-Oct-23 19:33N 40°44' W 073°57'2 2.1
2014-Oct-23 18:33N 40°43' W 073°59'4 4.4
2014-Oct-23 17:33N 40°41' W 074°04'1 0.6
2014-Oct-23 16:22N 40°41' W 074°05'0 0.1
2014-Oct-23 15:33N 40°41' W 074°05'0 0.0
2014-Oct-23 14:27N 40°41' W 074°05'0 0.0
2014-Oct-23 13:29N 40°41' W 074°05'0 0.0
2014-Oct-23 12:33N 40°41' W 074°05'0 0.0
2014-Oct-23 11:33N 40°41' W 074°05'0 0.0
2014-Oct-23 10:33N 40°41' W 074°05'0 0.0
2014-Oct-23 09:27N 40°41' W 074°05'0 0.0
2014-Oct-23 08:33N 40°41' W 074°05'0 0.0
2014-Oct-23 07:33N 40°41' W 074°05'0 0.0
2014-Oct-23 06:33N 40°41' W 074°05'1 1.3
2014-Oct-23 05:33N 40°41' W 074°03'6 6.0
2014-Oct-23 04:33N 40°44' W 073°57'1 0.5
2014-Oct-23 03:33N 40°44' W 073°57'5 4.7
2014-Oct-23 02:33N 40°42' W 074°02'1 1.5
2014-Oct-23 01:33N 40°41' W 074°04'5 4.8
2014-Oct-23 00:33N 40°43' W 073°58'1 1.3
2014-Oct-22 23:33N 40°44' W 073°57'6 6.2
2014-Oct-22 22:33N 40°41' W 074°04'0 0.2
2014-Oct-22 21:33N 40°41' W 074°05'4 3.9
2014-Oct-22 20:33N 40°42' W 073°60'3 2.8
2014-Oct-22 19:32N 40°44' W 073°57'3 2.6
2014-Oct-22 18:33N 40°43' W 073°59'4 4.3
2014-Oct-22 17:33N 40°41' W 074°05'0 0.1
2014-Oct-22 16:33N 40°41' W 074°05'0 0.0
2014-Oct-22 15:31N 40°41' W 074°05'0 0.0
2014-Oct-22 14:33N 40°41' W 074°05'0 0.0
2014-Oct-22 13:33N 40°41' W 074°05'0 0.0
2014-Oct-22 12:33N 40°41' W 074°05'0 0.0
2014-Oct-22 11:29N 40°41' W 074°05'0 0.0
2014-Oct-22 10:33N 40°41' W 074°05'0 0.0
2014-Oct-22 09:32N 40°41' W 074°05'0 0.0
2014-Oct-22 08:29N 40°41' W 074°05'1 0.6
2014-Oct-22 07:33N 40°41' W 074°04'6 6.0
2014-Oct-22 06:33N 40°45' W 073°58'2 0.2
2014-Oct-21 20:33N 40°43' W 073°58'5 4.8
2014-Oct-21 19:32N 40°41' W 074°05'0 0.0
2014-Oct-21 18:33N 40°41' W 074°05'0 0.0
2014-Oct-21 17:33N 40°41' W 074°05'0 0.0
2014-Oct-21 16:33N 40°41' W 074°05'0 0.0
2014-Oct-21 15:33N 40°41' W 074°05'0 0.0
2014-Oct-21 14:33N 40°41' W 074°05'0 0.0
2014-Oct-21 13:33N 40°41' W 074°05'0 0.0
2014-Oct-21 12:33N 40°41' W 074°05'4 3.6
2014-Oct-21 11:33N 40°40' W 074°00'1 0.7
2014-Oct-21 10:33N 40°40' W 074°01'3 3.1
2014-Oct-21 09:33N 40°41' W 074°05'0 0.0
2014-Oct-21 08:33N 40°41' W 074°05'0 0.0
2014-Oct-21 07:33N 40°41' W 074°05'0 0.0
2014-Oct-21 06:33N 40°41' W 074°05'0 0.0
2014-Oct-21 05:32N 40°41' W 074°05'0 0.0
2014-Oct-21 04:33N 40°41' W 074°05'0 0.0
2014-Oct-21 03:33N 40°41' W 074°05'0 0.0
2014-Oct-21 02:33N 40°41' W 074°05'0 0.0
2014-Oct-21 01:33N 40°41' W 074°05'0 0.0
2014-Oct-21 00:31N 40°41' W 074°05'  

Dump ship's entire track history